Weather History for Medford, OR

Change the Weather History Date:

Friday, April 4, 2014

  Actual Average Record
Temperature  
Mean Temperature 53 °F 51 °F  
Max Temperature 61 °F 62 °F 83 °F (1960)
Min Temperature 45 °F 39 °F 24 °F (1921)
Degree Days  
Heating Degree Days 12 14  
Month to date heating degree days 58 58  
Since 1 July heating degree days 3849 3690  
Cooling Degree Days 0 0  
Month to date cooling degree days 0 0  
Year to date cooling degree days 0 0  
Growing Degree Days 2 (Base 50)    
Moisture  
Dew Point 41 °F    
Average Humidity 69    
Maximum Humidity 93    
Minimum Humidity 44    
Precipitation  
Precipitation 0.07 in 0.05 in 0.39 in (1954)
Month to date precipitation 0.25 0.19  
Year to date precipitation 9.08 6.34  
Snow  
Snow 0.00 in 0.00 in - ()
Month to date snowfall 0.0 0.0  
Since 1 July snowfall 3.4 4.1  
Snow Depth 0.00 in    
Sea Level Pressure  
Sea Level Pressure 30.00 in    
Wind  
Wind Speed 4 mph (NE)    
Max Wind Speed 10 mph    
Max Gust Speed 14 mph    
Visibility 10 miles    
Events Rain    
T = Trace of Precipitation, MM = Missing Value Source: NWS Daily Summary

Daily Weather History Graph

Daily Weather History Graph

Search for Another Location

Airport:

Trip Planner

Search our weather history database for the weather conditions in past years. The results will help you decide how hot, cold, wet, or windy it might be!

Date:

Astronomy

Apr. 04, 2014 Rise Set
Actual Time 6:48 AM PDT 7:40 PM PDT
Civil Twilight 6:20 AM PDT 8:09 PM PDT
Nautical Twilight 5:46 AM PDT 8:43 PM PDT
Astronomical Twilight 5:11 AM PDT 9:18 PM PDT
Moon 10:05 AM PDT (4/4) 12:08 AM PDT (4/4)
Length of Visible Light 13h 49m
Length of Day
12h 52m
Waxing Crescent, 26% of the Moon is Illuminated
Apr 4
Waxing Crescent
Apr 7
First Quarter
Apr 15
Full
Apr 22
Last Quarter
Apr 28
New

Hourly Weather History & Observations

Time (PDT) Temp. Windchill Dew Point Humidity Pressure Visibility Wind Dir Wind Speed Gust Speed Precip Events Conditions
12:53 AM 46.9 °F - 44.1 °F 90% 30.02 in 10.0 mi NE 3.5 mph - 0.00 in Rain Light Rain
1:29 AM 46.0 °F 43.1 °F 43.0 °F 89% 30.01 in 10.0 mi North 5.8 mph - 0.01 in Rain Light Rain
1:53 AM 46.0 °F 44.8 °F 43.0 °F 89% 30.01 in 7.0 mi NNW 3.5 mph - 0.02 in Rain Light Rain
2:53 AM 45.0 °F 42.6 °F 42.1 °F 90% 30.01 in 10.0 mi North 4.6 mph - 0.02 in Rain Light Rain
3:53 AM 45.0 °F 43.5 °F 42.1 °F 90% 30.01 in 10.0 mi NNE 3.5 mph - 0.02 in Rain Light Rain
4:06 AM 45.0 °F 43.5 °F 42.1 °F 90% 30.00 in 10.0 mi NE 3.5 mph - 0.00 in Rain Light Rain
4:33 AM 45.0 °F 43.5 °F 42.1 °F 90% 29.99 in 10.0 mi NNE 3.5 mph - 0.00 in   Overcast
4:53 AM 45.0 °F - 42.1 °F 90% 30.00 in 10.0 mi Calm Calm - 0.00 in   Overcast
5:53 AM 45.0 °F - 42.1 °F 90% 30.00 in 10.0 mi Calm Calm - 0.00 in Rain Light Rain
6:13 AM 45.0 °F - 42.1 °F 90% 30.00 in 10.0 mi Calm Calm - 0.00 in   Overcast
6:53 AM 45.0 °F - 42.1 °F 90% 30.01 in 10.0 mi Calm Calm - 0.00 in Rain Light Rain
7:53 AM 45.0 °F 43.5 °F 41.0 °F 86% 30.02 in 6.0 mi NNE 3.5 mph - 0.01 in Rain Light Rain
8:53 AM 45.0 °F 43.5 °F 41.0 °F 86% 30.03 in 10.0 mi NNE 3.5 mph - 0.00 in   Overcast
9:53 AM 46.9 °F - 41.0 °F 80% 30.03 in 10.0 mi North 3.5 mph - N/A   Overcast
10:06 AM 46.9 °F - 42.1 °F 83% 30.03 in 10.0 mi Variable 3.5 mph - N/A   Overcast
10:25 AM 48.0 °F - 41.0 °F 77% 30.03 in 10.0 mi Calm Calm - N/A   Overcast
10:53 AM 50.0 °F - 41.0 °F 71% 30.03 in 10.0 mi Calm Calm - N/A   Overcast
11:12 AM 51.1 °F - 39.9 °F 66% 30.03 in 10.0 mi Calm Calm - N/A   Overcast
11:45 AM 52.0 °F - 42.1 °F 69% 30.02 in 10.0 mi Variable 3.5 mph - N/A   Overcast
11:53 AM 52.0 °F - 41.0 °F 66% 30.02 in 10.0 mi ESE 3.5 mph - N/A   Mostly Cloudy
12:53 PM 54.0 °F - 39.0 °F 57% 30.01 in 10.0 mi Variable 4.6 mph - N/A   Scattered Clouds
1:53 PM 55.9 °F - 39.0 °F 53% 29.99 in 10.0 mi Variable 3.5 mph - 0.00 in   Mostly Cloudy
2:53 PM 59.0 °F - 37.9 °F 46% 29.96 in 10.0 mi Variable 4.6 mph - N/A   Mostly Cloudy
3:53 PM 57.9 °F - 37.0 °F 46% 29.94 in 10.0 mi Calm Calm - N/A   Mostly Cloudy
4:53 PM 59.0 °F - 37.0 °F 44% 29.94 in 10.0 mi South 5.8 mph - N/A   Partly Cloudy
5:53 PM 57.9 °F - 39.9 °F 51% 29.94 in 10.0 mi SSE 9.2 mph - N/A   Scattered Clouds
6:53 PM 55.0 °F - 39.9 °F 57% 29.96 in 10.0 mi NE 6.9 mph - N/A   Scattered Clouds
7:53 PM 54.0 °F - 41.0 °F 62% 29.97 in 10.0 mi North 8.1 mph - N/A   Mostly Cloudy
8:53 PM 51.1 °F - 39.9 °F 66% 30.01 in 10.0 mi ENE 3.5 mph - N/A   Mostly Cloudy
9:53 PM 50.0 °F - 37.0 °F 61% 30.03 in 10.0 mi SSW 3.5 mph - N/A   Clear
10:53 PM 50.0 °F - 39.0 °F 66% 30.04 in 10.0 mi SSE 3.5 mph - N/A   Overcast
11:53 PM 50.0 °F - 39.0 °F 66% 30.06 in 10.0 mi Calm Calm - N/A   Overcast